Regional Weather Roundup
Issued by NWS

Home | Current Version | Previous Version | Text Only | Print | Product List | Glossary On
Versions: 1 2 3 4 5 6 7 8 9 10 11 12 13 14 15 16 17 18 19 20 21 22 23 24 25 26 27 28 29 30 31 32 33 34 35 36 37 38 39 40 41 42 43 44 45 46 47 48 49 50
000
ASUS43 KTOP 172108
RWRKS

WEATHER ROUNDUP FOR KANSAS
NATIONAL WEATHER SERVICE GOODLAND KS
400 PM CDT THU APR 17 2014

NOTE:  "FAIR" INDICATES FEW OR NO CLOUDS BELOW 12,000 FEET WITH NO
SIGNIFICANT WEATHER AND/OR OBSTRUCTIONS TO VISIBILITY.

KSZ001>006-013>018-027>032-041>047-172200-
NORTHWEST KANSAS

CITY           SKY/WX    TMP DP  RH WIND       PRES   REMARKS
GOODLAND       CLOUDY    52  36  54 SW21      30.18F
HAYS           SUNNY     55  30  38 CALM      30.24F
HILL CITY      SUNNY     56  29  35 MISG      30.23F
RUSSELL        SUNNY     54  28  36 NW3       30.23F
$$

KSZ061>065-074>080-084>089-172200-
SOUTHWEST KANSAS

CITY           SKY/WX    TMP DP  RH WIND       PRES   REMARKS
DODGE CITY     CLOUDY    46  38  73 CALM      30.25S
ELKHART          N/A     51  37  58 SE8         N/A
GARDEN CITY    PTSUNNY   48  40  73 S5        30.24F
GREAT BEND     MOSUNNY   54  30  40 E3        30.23F
LIBERAL        CLOUDY    46  39  76 E6        30.26S
PRATT          MOSUNNY   48  36  61 NE5       30.26F
$$

KSZ066>073-081>083-090>101-172200-
SOUTHEAST KANSAS

CITY           SKY/WX    TMP DP  RH WIND       PRES   REMARKS
CHANUTE        CLOUDY    46  34  62 N7        30.28F
COFFEYVILLE    CLOUDY    54  37  52 N9        30.25F
HUTCHINSON     PTSUNNY   52  32  46 N6        30.26F
MEDICINE LODGE   N/A     47  40  76 N9        30.25F
NEWTON         CLOUDY    46  30  53 N5        30.30S
PARSONS        CLOUDY    52  36  54 N9        30.27F
WICHITA INTL   CLOUDY    46  34  62 NE6       30.27F
WICHITA JABRA  CLOUDY    46  36  68 VRB3      30.27F
WICHITA MCCONL CLOUDY    44  38  79 N6        30.28S
WINFIELD       CLOUDY    48  34  58 N13       30.27S
$$

KSZ007>012-019>026-033>040-048>060-102>105-172200-
NORTHEAST KANSAS

CITY           SKY/WX    TMP DP  RH WIND       PRES   REMARKS
CONCORDIA      SUNNY     54  29  38 E6        30.25F
EMPORIA        CLOUDY    45  34  65 CALM      30.27F HAZE
LAWRENCE       CLOUDY    49  32  52 CALM      30.28F
MANHATTAN      MOSUNNY   54  31  41 CALM      30.25F
OLATHE IND     CLOUDY    44  33  65 CALM      30.28F
OLATHE EXE     CLOUDY    44  32  62 CALM      30.27F
SALINA         SUNNY     56  30  37 NE5       30.26F
TOPEKA BILLARD CLOUDY    51  33  50 CALM      30.28F
TOPEKA FORBES  CLOUDY    48  31  51 CALM      30.27F
$$



USA.gov is the U.S. government's official web portal to all federal, state and local government web resources and services.